Regional Weather Roundup
Issued by NWS Kansas City/Pleasant Hill, MO

Home | Current Version | Previous Version | Graphics & Text | Print | Product List | Glossary Off
Versions: 1 2 3 4 5 6 7 8 9 10 11 12 13 14 15 16 17 18 19 20 21 22 23 24 25 26 27 28

000
ASUS43 KEAX 280210
RWREAX

WEATHER ROUNDUP FOR EASTERN KANSAS AND NORTHWEST MISSOURI
NATIONAL WEATHER SERVICE KANSAS CITY/PLEASANT HILL MO
900 PM CDT FRI MAY 27 2016

KSZ040-057-103>105-MOZ028-029-037-043-280300-
...KANSAS CITY METROPOLITAN AREA...

CITY           SKY/WX    TMP DP  RH WIND       PRES   REMARKS
K.C. INTL      CLOUDY    68  63  84 E3        29.74R
K.C. DOWNTOWN  CLOUDY    71  67  87 NW3       29.73R
LEES SUMMIT    CLOUDY    72  62  71 S9        29.74R
OLATHE - IXD   TSTM      69  64  84 CALM      29.74R
OLATHE - OJC   CLOUDY    70  65  84 SE5       29.74R
LAWRENCE       CLOUDY    65  55  70 NW18G28   29.75R

$$

MOZ001>008-011>017-020>025-030>033-038>040-044>046-053-054-280300-
...NORTHERN AND CENTRAL MISSOURI...

CITY           SKY/WX    TMP DP  RH WIND       PRES   REMARKS
ST. JOSEPH     CLOUDY    69  66  90 N5        29.70F
MOSBY          CLOUDY    68  63  83 CALM      29.73R
WARRENSBURG    CLOUDY    70  64  83 S6        29.73S
WHITEMAN AFB   MOCLDY    71  71 100 SW7       29.73R
CLINTON        CLOUDY    68  66  94 CALM      29.75R
SEDALIA        CLOUDY    73  68  84 S6        29.76R
WARSAW         NOT AVBL
CHILLICOTHE      N/A     68  66  93 VRB3      29.75R
KIRKSVILLE     RAIN      65  64  97 E7        29.77R FOG

$$

MOZ041-047>049-056>058-063>065-088>090-097-280300-
...EASTERN AND SOUTHERN MISSOURI...

CITY           SKY/WX    TMP DP  RH WIND       PRES   REMARKS
ST. LOUIS INTL CLOUDY    72  66  81 SE12      29.82R
SPIRIT OF STL  CLOUDY    70  66  87 VRB7      29.80R
COLUMBIA       PTCLDY    68  66  93 SE8       29.76R
JEFFERSON CITY CLOUDY    69  68  96 SE8       29.75S
ROLLA          CLOUDY    68  65  90 SE10G18   29.78S
SPRINGFIELD    MOCLDY    72  66  81 S10       29.75R
BRANSON        CLOUDY    68  64  88 S10       29.79R
JOPLIN         CLOUDY    70  67  90 S6        29.74R
WEST PLAINS    CLOUDY    70  66  87 S12G21    29.83S

$$

IAZ060-094-KSZ022-034>040-054-083-096-NEZ052-066-093-280300-
...KANSAS...SOUTHEAST NEBRASKA AND IOWA...

CITY           SKY/WX    TMP DP  RH WIND       PRES   REMARKS
TOPEKA         CLOUDY    61  58  90 NW3       29.73F
MANHATTAN      CLOUDY    61  57  87 NE8       29.67F
EMPORIA        RAIN      60  58  92 SW5       29.73S
CHANUTE        CLOUDY    67  58  72 W30G41    29.77R
WICHITA        CLOUDY    64  59  83 E12       29.65S
OMAHA          CLOUDY    73  63  70 E7        29.69S
LINCOLN        TSTM      62  60  93 NW12G22   29.70R VSB 3/4
FALLS CITY     LGT RAIN  70  66  87 S3        29.71R
LAMONI         LGT RAIN  69  64  84 S3        29.75R
DES MOINES     LGT RAIN  73  61  65 E5        29.70S

$$





USA.gov is the U.S. government's official web portal to all federal, state and local government web resources and services.